| time (UTC) | temp F | wind direction | speed knots | gust knots | rain 1hr in | rain 24hr in | rain mn in | humidity % | barometer mb |
| 20260510204554 | 39 | 0 | 0.0 | 0.0 | 0.00 | 0.01 | 0.00 | 95 | 1032.7 |
| 20260510203051 | 39 | 0 | 0.0 | 0.0 | 0.00 | 0.01 | 0.00 | 95 | 1032.6 |
| 20260510201543 | 40 | 0 | 0.0 | 0.0 | 0.00 | 0.01 | 0.00 | 95 | 1032.4 |
| 20260510200051 | 40 | 0 | 0.0 | 0.0 | 0.00 | 0.01 | 0.00 | 95 | 1032.2 |
| 20260510194547 | 40 | 0 | 0.0 | 0.0 | 0.00 | 0.02 | 0.00 | 95 | 1032.1 |
| 20260510193047 | 40 | 0 | 0.0 | 0.0 | 0.00 | 0.02 | 0.00 | 95 | 1032.0 |
| 20260510191553 | 40 | 0 | 0.0 | 0.0 | 0.00 | 0.02 | 0.00 | 95 | 1031.9 |
| 20260510190046 | 40 | 0 | 0.0 | 0.0 | 0.00 | 0.02 | 0.00 | 95 | 1031.8 |
| 20260510184544 | 40 | 0 | 0.0 | 0.0 | 0.00 | 0.03 | 0.00 | 95 | 1031.8 |
| 20260510183051 | 40 | 0 | 0.0 | 0.0 | 0.00 | 0.03 | 0.00 | 95 | 1031.6 |
| 20260510181554 | 40 | 0 | 0.0 | 0.0 | 0.00 | 0.03 | 0.00 | 94 | 1031.4 |
| 20260510180047 | 41 | 0 | 0.0 | 0.0 | 0.00 | 0.03 | 0.00 | 95 | 1031.4 |
| 20260510174552 | 41 | 0 | 0.0 | 0.0 | 0.00 | 0.03 | 0.00 | 94 | 1031.3 |
| 20260510173110 | 41 | 0 | 0.0 | 0.0 | 0.00 | 0.03 | 0.00 | 95 | 1031.2 |
| 20260510171544 | 41 | 0 | 0.0 | 0.0 | 0.00 | 0.03 | 0.00 | 94 | 1031.3 |
| 20260510170042 | 41 | 0 | 0.0 | 0.0 | 0.00 | 0.03 | 0.00 | 94 | 1031.3 |
| 20260510164606 | 41 | 0 | 0.0 | 0.0 | 0.00 | 0.03 | 0.00 | 94 | 1031.3 |
| 20260510163047 | 42 | 0 | 0.0 | 0.0 | 0.00 | 0.03 | 0.00 | 94 | 1031.4 |
| 20260510161547 | 42 | 0 | 0.0 | 0.0 | 0.00 | 0.03 | 0.00 | 94 | 1031.4 |
| 20260510160046 | 42 | 0 | 0.0 | 0.0 | 0.00 | 0.03 | 0.00 | 95 | 1031.5 |
| 20260510154543 | 41 | 0 | 0.0 | 0.0 | 0.00 | 0.03 | 0.00 | 94 | 1031.6 |
| 20260510153047 | 41 | 0 | 0.0 | 0.0 | 0.00 | 0.03 | 0.00 | 94 | 1031.5 |
| 20260510151539 | 41 | 0 | 0.0 | 0.0 | 0.00 | 0.03 | 0.00 | 94 | 1031.6 |
| 20260510150048 | 42 | 0 | 0.0 | 0.0 | 0.00 | 0.03 | 0.00 | 94 | 1031.6 |
| 20260510144550 | 41 | 0 | 0.0 | 0.0 | 0.00 | 0.03 | 0.00 | 94 | 1031.7 |
| 20260510143043 | 41 | 0 | 0.0 | 0.0 | 0.00 | 0.03 | 0.00 | 94 | 1031.8 |
| 20260510141542 | 41 | 0 | 0.0 | 0.0 | 0.00 | 0.03 | 0.00 | 94 | 1031.9 |
| 20260510140044 | 41 | 0 | 0.0 | 0.0 | 0.00 | 0.03 | 0.00 | 93 | 1031.9 |
| 20260510134553 | 42 | 0 | 0.0 | 0.0 | 0.00 | 0.03 | 0.03 | 93 | 1032.0 |
| 20260510133047 | 42 | 0 | 0.0 | 0.0 | 0.00 | 0.03 | 0.03 | 93 | 1031.9 |
| 20260510131543 | 42 | 0 | 0.0 | 0.0 | 0.00 | 0.03 | 0.03 | 93 | 1032.0 |
| 20260510130046 | 43 | 0 | 0.0 | 0.0 | 0.00 | 0.03 | 0.03 | 93 | 1032.0 |
| 20260510124551 | 43 | 0 | 0.0 | 0.0 | 0.00 | 0.03 | 0.03 | 93 | 1031.9 |
| 20260510123041 | 44 | 0 | 0.0 | 0.0 | 0.00 | 0.03 | 0.03 | 92 | 1032.0 |
| 20260510121553 | 44 | 0 | 0.0 | 0.0 | 0.00 | 0.03 | 0.03 | 92 | 1032.2 |
| 20260510120044 | 44 | 0 | 0.0 | 0.0 | 0.00 | 0.03 | 0.03 | 92 | 1032.1 |
| 20260510114601 | 45 | 0 | 0.0 | 0.0 | 0.00 | 0.03 | 0.03 | 92 | 1032.1 |
| 20260510113044 | 45 | 0 | 0.0 | 0.0 | 0.00 | 0.03 | 0.03 | 93 | 1032.0 |
| 20260510111549 | 45 | 0 | 0.0 | 0.0 | 0.00 | 0.03 | 0.03 | 93 | 1032.0 |
| 20260510110042 | 45 | 0 | 0.0 | 0.0 | 0.00 | 0.03 | 0.03 | 92 | 1031.9 |
| 20260510104604 | 45 | 0 | 0.0 | 0.0 | 0.00 | 0.03 | 0.03 | 92 | 1031.8 |
| 20260510103052 | 45 | 0 | 0.0 | 0.0 | 0.00 | 0.03 | 0.03 | 91 | 1031.7 |
| 20260510101546 | 45 | 0 | 0.0 | 0.0 | 0.00 | 0.03 | 0.03 | 91 | 1031.8 |
| 20260510100052 | 45 | 0 | 0.0 | 0.0 | 0.00 | 0.03 | 0.03 | 90 | 1031.6 |
| 20260510094547 | 45 | 0 | 0.0 | 0.0 | 0.00 | 0.03 | 0.03 | 88 | 1031.6 |
| 20260510093048 | 46 | 0 | 0.0 | 0.0 | 0.00 | 0.03 | 0.03 | 87 | 1031.5 |
| 20260510091546 | 47 | 0 | 0.0 | 0.0 | 0.00 | 0.03 | 0.03 | 86 | 1031.5 |
| 20260510090047 | 48 | 0 | 0.0 | 0.0 | 0.00 | 0.03 | 0.03 | 85 | 1031.3 |
| 20260510084552 | 49 | 0 | 0.0 | 0.0 | 0.00 | 0.03 | 0.03 | 84 | 1031.2 |
| 20260510083100 | 50 | 0 | 0.0 | 0.0 | 0.00 | 0.03 | 0.03 | 81 | 1031.1 |
| 20260510081552 | 52 | 0 | 0.0 | 0.0 | 0.00 | 0.03 | 0.03 | 80 | 1030.9 |
| 20260510080057 | 53 | 0 | 0.0 | 0.0 | 0.00 | 0.03 | 0.03 | 77 | 1030.9 |
| 20260510074602 | 55 | 0 | 0.0 | 0.0 | 0.00 | 0.03 | 0.03 | 75 | 1030.7 |
| 20260510073050 | 56 | 0 | 0.0 | 1.7 | 0.00 | 0.03 | 0.03 | 75 | 1030.6 |
| 20260510071557 | 57 | 0 | 0.0 | 1.7 | 0.00 | 0.03 | 0.03 | 74 | 1030.6 |
| 20260510070043 | 58 | 0 | 0.0 | 2.6 | 0.00 | 0.03 | 0.03 | 72 | 1030.4 |
| 20260510064607 | 59 | 0 | 0.0 | 1.7 | 0.00 | 0.03 | 0.03 | 70 | 1030.3 |
| 20260510063056 | 60 | 0 | 0.0 | 0.0 | 0.00 | 0.03 | 0.03 | 70 | 1030.1 |
| 20260510061549 | 61 | 0 | 1.7 | 7.8 | 0.00 | 0.03 | 0.03 | 68 | 1030.2 |
| 20260510060055 | 61 | 124 | 0.9 | 5.2 | 0.00 | 0.03 | 0.03 | 67 | 1030.1 |
| 20260510054545 | 63 | 0 | 0.0 | 2.6 | 0.00 | 0.03 | 0.03 | 65 | 1030.0 |
| 20260510053049 | 62 | 0 | 0.0 | 5.2 | 0.00 | 0.03 | 0.03 | 67 | 1029.9 |
| 20260510051552 | 62 | 123 | 0.9 | 3.5 | 0.00 | 0.03 | 0.03 | 67 | 1029.8 |
| 20260510050046 | 62 | 126 | 1.7 | 4.3 | 0.00 | 0.03 | 0.03 | 68 | 1029.8 |
| 20260510044542 | 61 | 0 | 0.9 | 5.2 | 0.00 | 0.03 | 0.03 | 68 | 1029.8 |
| 20260510043050 | 61 | 0 | 0.9 | 5.2 | 0.00 | 0.03 | 0.03 | 69 | 1029.8 |
| 20260510041605 | 61 | 151 | 1.7 | 5.2 | 0.00 | 0.03 | 0.03 | 70 | 1029.7 |
| 20260510040046 | 61 | 198 | 0.9 | 4.3 | 0.00 | 0.03 | 0.03 | 71 | 1029.9 |
| 20260510034545 | 60 | 139 | 0.9 | 5.2 | 0.00 | 0.03 | 0.03 | 71 | 1030.1 |
| 20260510033043 | 60 | 161 | 1.7 | 5.2 | 0.00 | 0.03 | 0.03 | 72 | 1030.1 |
| 20260510031541 | 60 | 0 | 0.0 | 5.2 | 0.00 | 0.03 | 0.03 | 73 | 1030.2 |
| 20260510030049 | 59 | 0 | 0.0 | 3.5 | 0.00 | 0.03 | 0.03 | 73 | 1030.3 |
| 20260510024556 | 59 | 0 | 0.0 | 6.1 | 0.00 | 0.03 | 0.03 | 75 | 1030.4 |
| 20260510023044 | 59 | 163 | 0.0 | 6.1 | 0.00 | 0.03 | 0.03 | 76 | 1030.7 |
| 20260510021542 | 58 | 0 | 0.9 | 4.3 | 0.00 | 0.03 | 0.03 | 75 | 1030.8 |
| 20260510020052 | 58 | 188 | 0.9 | 7.0 | 0.00 | 0.03 | 0.03 | 77 | 1031.0 |
| 20260510014553 | 58 | 0 | 0.0 | 6.1 | 0.00 | 0.04 | 0.03 | 79 | 1031.1 |
| 20260510013055 | 57 | 215 | 0.0 | 5.2 | 0.00 | 0.04 | 0.03 | 81 | 1031.3 |
| 20260510011549 | 57 | 197 | 0.0 | 5.2 | 0.00 | 0.04 | 0.03 | 83 | 1031.4 |
| 20260510010059 | 56 | 0 | 0.0 | 4.3 | 0.00 | 0.04 | 0.03 | 86 | 1031.4 |
| 20260510004546 | 55 | 261 | 1.7 | 6.1 | 0.00 | 0.04 | 0.03 | 89 | 1031.4 |
| 20260510003048 | 55 | 295 | 1.7 | 5.2 | 0.00 | 0.04 | 0.03 | 93 | 1031.4 |
| 20260510001549 | 54 | 194 | 0.0 | 4.3 | 0.00 | 0.04 | 0.03 | 94 | 1031.5 |
| 20260510000053 | 54 | 201 | 0.0 | 4.3 | 0.00 | 0.04 | 0.03 | 95 | 1031.5 |
| 20260509234600 | 54 | 200 | 0.9 | 4.3 | 0.00 | 0.04 | 0.03 | 96 | 1031.4 |
| 20260509233046 | 54 | 212 | 1.7 | 3.5 | 0.00 | 0.04 | 0.03 | 96 | 1031.4 |
| 20260509231550 | 53 | 0 | 0.0 | 2.6 | 0.00 | 0.04 | 0.03 | 96 | 1031.3 |
| 20260509230048 | 53 | 0 | 0.0 | 1.7 | 0.00 | 0.04 | 0.03 | 96 | 1031.2 |
| 20260509224551 | 53 | 0 | 0.0 | 0.0 | 0.00 | 0.04 | 0.03 | 96 | 1031.1 |
| 20260509223049 | 52 | 0 | 0.0 | 0.0 | 0.00 | 0.04 | 0.03 | 96 | 1031.1 |
| 20260509221603 | 52 | 0 | 0.0 | 0.9 | 0.00 | 0.04 | 0.03 | 96 | 1030.9 |
| 20260509220059 | 52 | 0 | 0.0 | 0.0 | 0.00 | 0.04 | 0.03 | 96 | 1030.8 |
| 20260509214548 | 52 | 0 | 0.0 | 1.7 | 0.00 | 0.04 | 0.03 | 96 | 1030.7 |
| 20260509213049 | 52 | 0 | 0.0 | 0.0 | 0.00 | 0.04 | 0.03 | 96 | 1030.5 |
| 20260509211547 | 52 | 0 | 0.0 | 3.5 | 0.01 | 0.04 | 0.03 | 96 | 1030.2 |
| 20260509210055 | 52 | 197 | 0.9 | 5.2 | 0.01 | 0.04 | 0.03 | 96 | 1030.1 |